Center Hill Observed Data For Previous 48 Hours

Caption
Day and Hour Reservoir Elevation (behind dam)* Tailwater Elevation (below dam)* Average Hourly Discharge*
11/11/2018 1 AM CST 631.80 481.90 5,010
11/11/2018 2 AM CST 631.81 481.81 5,010
11/11/2018 3 AM CST 631.81 481.81 4,950
11/11/2018 4 AM CST 631.81 481.81 4,950
11/11/2018 5 AM CST 631.81 481.81 4,950
11/11/2018 6 AM CST 631.81 481.91 4,950
11/11/2018 7 AM CST 631.82 481.82 4,950
11/11/2018 8 AM CST 631.82 481.92 4,950
11/11/2018 9 AM CST 631.82 481.82 5,010
11/11/2018 10 AM CST 631.82 481.82 5,010
11/11/2018 11 AM CST 631.82 481.82 5,010
11/11/2018 12 PM CST 631.82 481.82 5,010
11/11/2018 1 PM CST 631.82 481.82 5,010
11/11/2018 2 PM CST 631.82 481.92 5,010
11/11/2018 3 PM CST 631.82 481.82 5,010
11/11/2018 4 PM CST 631.82 481.82 5,010
11/11/2018 5 PM CST 631.82 481.92 5,010
11/11/2018 6 PM CST 631.82 481.82 4,950
11/11/2018 7 PM CST 631.82 481.82 4,950
11/11/2018 8 PM CST 631.83 481.83 5,010
11/11/2018 9 PM CST 631.83 481.93 5,010
11/11/2018 10 PM CST 631.83 481.93 5,010
11/11/2018 11 PM CST 631.83 481.83 5,010
11/12/2018 12 AM CST 631.83 481.83 5,010
11/12/2018 1 AM CST 631.83 481.83 5,010
11/12/2018 2 AM CST 631.82 481.82 5,010
11/12/2018 3 AM CST 631.82 481.82 5,010
11/12/2018 4 AM CST 631.82 481.82 5,010
11/12/2018 5 AM CST 631.82 481.82 5,010
11/12/2018 6 AM CST 631.88 481.82 5,010
11/12/2018 7 AM CST 631.82 481.82 5,010
11/12/2018 8 AM CST 631.82 481.82 4,950
11/12/2018 9 AM CST 631.82 481.82 5,010
11/12/2018 10 AM CST 631.82 481.82 5,010
11/12/2018 11 AM CST 631.82 481.82 4,950
11/12/2018 12 PM CST 631.82 481.82 5,010
11/12/2018 1 PM CST 631.83 481.83 5,010
11/12/2018 2 PM CST 631.83 481.93 5,010
11/12/2018 3 PM CST 631.84 481.94 5,010
11/12/2018 4 PM CST 631.84 481.84 5,010
11/12/2018 5 PM CST 631.84 481.84 5,010
11/12/2018 6 PM CST 631.84 481.94 5,010
11/12/2018 7 PM CST 631.84 481.94 5,010
11/12/2018 8 PM CST 631.85 481.95 5,010
11/12/2018 9 PM CST 631.85 481.85 5,010
11/12/2018 10 PM CST 631.85 481.95 5,010
11/12/2018 11 PM CST 631.86 481.86 5,010
11/13/2018 12 AM CST 631.86 481.86 5,010
11/13/2018 1 AM CST 631.86 481.86 5,010
11/13/2018 2 AM CST 631.87 481.87 5,010
11/13/2018 3 AM CST 631.88 481.88 5,010
11/13/2018 4 AM CST 631.88 481.88 5,010
11/13/2018 5 AM CST 631.89 481.89 5,010
11/13/2018 6 AM CST 631.89 481.89 5,010
11/13/2018 7 AM CST 631.90 481.90 5,010
11/13/2018 8 AM CST 631.90 481.90 5,010
11/13/2018 9 AM CST 631.92 481.82 5,010

Elevations are in feet above sea level. Discharges are in cubic feet per second and are reported at the end of the hour.